Regional Weather Roundup
Issued by NWS

Home | Current Version | Previous Version | Graphics & Text | Print | Product List | Glossary On
Versions: 1 2 3 4 5 6 7 8 9 10 11 12 13 14 15 16 17 18 19 20 21 22 23 24 25 26 27 28 29 30 31 32 33 34 35 36 37 38 39 40 41 42 43 44 45 46 47 48 49 50
000
ASUS43 KBIS 281810
RWRND

NORTH DAKOTA REGIONAL WEATHER ROUNDUP
NATIONAL WEATHER SERVICE BISMARCK ND
100 PM CDT THU APR 28 2016

NOTE: "FAIR" INDICATES FEW OR NO CLOUDS BELOW 12,000 FEET WITH NO
SIGNIFICANT WEATHER AND/OR OBSTRUCTIONS TO VISIBILITY.


NDZ001>003-009>011-017-281900-
NORTHWEST NORTH DAKOTA

CITY           SKY/WX    TMP DP  RH WIND       PRES   REMARKS
WILLISTON      MOSUNNY   54  22  28 E16       30.15F
6HR MIN TEMP:  36; 6HR MAX TEMP:  54;

MINOT          MOSUNNY   59  14  17 NE14G22   30.14S
MINOT AFB      MOSUNNY   54  15  21 E14G24    30.13F
$$

NDZ018>021-031>035-040>046-281900-
SOUTHWEST NORTH DAKOTA

CITY           SKY/WX    TMP DP  RH WIND       PRES   REMARKS
BISMARCK       PTSUNNY   54  25  32 E8        30.10F
6HR MIN TEMP:  37; 6HR MAX TEMP:  54;

DICKINSON      CLOUDY    43  32  65 SE7       30.09S
GARRISON         N/A     53  24  32 NE9G18    30.12S
6HR MIN TEMP:  37; 6HR MAX TEMP:  54;

HETTINGER ARPT CLOUDY    37  34  89 NE8       30.11R
$$

NDZ004>008-012>016-024-026-027-054-281900-
NORTHEAST NORTH DAKOTA

CITY           SKY/WX    TMP DP  RH WIND       PRES   REMARKS
GRAND FORKS    PTSUNNY   55  20  25 E20       30.12S
GRND FRKS AFB  CLOUDY    56  20  24 NE10G22   30.12F
DEVILS LAKE    SUNNY     52  17  25 E17       30.14S
$$

NDZ022-023-025-028>030-036>039-047>053-281900-
SOUTHEAST NORTH DAKOTA

CITY           SKY/WX    TMP DP  RH WIND       PRES   REMARKS
FARGO          MOSUNNY   55  18  23 NE14      30.06S
6HR MIN TEMP:  43; 6HR MAX TEMP:  56;

JAMESTOWN      SUNNY     54  26  34 NE17G23   30.06F
$$





USA.gov is the U.S. government's official web portal to all federal, state and local government web resources and services.